Regional Weather Roundup
Issued by NWS Green Bay, WI

Home | Current Version | Previous Version | Text Only | Print | Product List | Glossary On
Versions: 1 2 3 4 5 6 7 8 9 10 11 12 13 14 15 16 17 18 19 20 21 22 23 24 25 26 27 28 29 30 31 32 33 34 35 36 37 38 39 40 41 42 43 44 45 46 47 48 49 50
000
ASUS43 KGRB 231911
RWRGRB

NORTH-CENTRAL AND NORTHEAST WISCONSIN REGIONAL WEATHER ROUNDUP
NATIONAL WEATHER SERVICE GREEN BAY WI
200 PM CDT THU MAR 23 2017

WIZ005-009-010>012-018-019-232000-
NORTH CENTRAL WISCONSIN

CITY           SKY/WX    TMP DP  RH WIND       PRES   REMARKS
IRONWOOD       CLOUDY    37  18  46 S14G24    30.03F
MANITOWISH WTR CLOUDY    34  20  57 S14G23    30.06F
ARBOR VITAE    CLOUDY    37  24  59 S10       30.06F
EAGLE RIVER    CLOUDY    34  17  49 S13G21    30.08F
LAND O LAKES   CLOUDY    35  17  47 S14G21    30.09F
RHINELANDER    CLOUDY    37  20  50 S10G20    30.10F
PHILLIPS       CLOUDY    35  22  60 S14G24    30.07F
ANTIGO         CLOUDY    35  22  60 S16       30.14F
TOMAHAWK       CLOUDY    37  22  55 S5        30.11S
MERRILL        CLOUDY    38  20  49 S7G17     30.12F
$$

WIZ013-073-232000-
NORTHEAST WISCONSIN

CITY           SKY/WX    TMP DP  RH WIND       PRES   REMARKS
IRON MOUNTAIN  CLOUDY    34  22  61 S12       30.15F
MARINETTE        N/A    N/A N/A N/A MISG        N/A
OCONTO         CLOUDY    36  26  68 S10G18    30.23F
$$

WIZ017-030-035>037-045-232000-
CENTRAL WISCONSIN

CITY           SKY/WX    TMP DP  RH WIND       PRES   REMARKS
MEDFORD        CLOUDY    36  23  59 S15       30.10S
WAUSAU         CLOUDY    40  21  46 SE15      30.11F
MOSINEE        CLOUDY    39  21  48 SE15G21   30.14F
MARSHFIELD     CLOUDY    38  21  50 S15       30.10F
WISC RAPIDS    CLOUDY    40  20  44 S15G24    30.16F
STEVENS POINT  CLOUDY    39  17  41 S16G23    30.15F
WAUPACA        CLOUDY    44  22  43 SE14      30.18F
SHAWANO        CLOUDY    41  23  49 S10G17    30.19F
CLINTONVILLE   CLOUDY    37  23  56 SE12      30.18F
WAUTOMA        NOT AVBL
$$

WIZ038-039-048-051-232000-
FOX VALLEY

CITY           SKY/WX    TMP DP  RH WIND       PRES   REMARKS
NWS GREEN BAY  CLOUDY    38  27  64 S17       30.21F
APPLETON       CLOUDY    39  19  45 SE16G23   30.18F
OSHKOSH        CLOUDY    42  24  49 S10       30.19F
FOND DU LAC    CLOUDY    42  23  46 S14       30.19F
$$

WIZ022-050-052-232000-
EAST CENTRAL WISCONSIN

CITY           SKY/WX    TMP DP  RH WIND       PRES   REMARKS
EPHRAIM        CLOUDY    33  26  76 S16G32    30.23F
WASHINGTON ISL CLOUDY    33  24  70 S13G23    30.25F
STURGEON BAY   CLOUDY    34  25  69 S23G29    30.24F
MANITOWOC      CLOUDY    36  26  67 S18G26    30.25F
SHEBOYGAN      CLOUDY    36  25  64 SE20G26   30.23F
$$

LMZ563-521-522-541>543-232000-
LAKESHORE

STATION/POSITION TIME  TEMP    WIND        PRES    VSBY  WAVE
                       AIR SEA DIR/SP/G                  HT/PER
                 (UTC) (F)     (DEG/KT/KT) (MB)    (MI)  (FT/S)
SHEBOYGAN LKSHOR 1900   35     160/ 24/ 28 1024.4F
KEWAUNEE LKSHORE 1848   34     170/ 25/ 27 1024.6F
NORTHPORT PIER   1830   33     160/ 12/ 21 1024.7F
SISTER BAY LKSHO 1820   34     180/ 25/ 30   N/A
CHAMBERS ISLAND  1840   34     140/  8/ 15 1023.7F
MENOMINEE LKSHOR 1848   34     360/ 20/ 26 1023.0F
$$




USA.gov is the U.S. government's official web portal to all federal, state and local government web resources and services.